,,Stat6,,Stat2,,Stat8,,Stat9,,Stat10,,Wind1,,Wind1,
time,status,PA1M_AVG,status,PR1M_SUM,status,RH1M_AVG,status,SR1M_AVG,status,TA1M_AVG,status,W1dAve1m,status,W1sAve1m,
2009-06-09, 00:00:00,VALID,918.794,VALID,0,VALID,100,VALID,0,VALID,20.1835,VALID,107,VALID,0,
2009-06-09, 00:01:00,VALID,918.796,VALID,0,VALID,100,VALID,0,VALID,20.1638,VALID,109,VALID,0,
2009-06-09, 00:02:00,VALID,918.81,VALID,0,VALID,100,VALID,-0.0339617,VALID,20.1543,VALID,109,VALID,0,
2009-06-09, 00:03:00,VALID,918.812,VALID,0,VALID,100,VALID,-0.0169808,VALID,20.1289,VALID,116,VALID,0,
2009-06-09, 00:04:00,VALID,918.811,VALID,0,VALID,100,VALID,-0.0679233,VALID,20.1356,VALID,123,VALID,0,
2009-06-09, 00:05:00,VALID,918.815,VALID,0,VALID,100,VALID,-0.0679233,VALID,20.1379,VALID,123,VALID,0,
2009-06-09, 00:06:00,VALID,918.836,VALID,0,VALID,100,VALID,-0.0509425,VALID,20.1549,VALID,121,VALID,0,
2009-06-09, 00:07:00,VALID,918.861,VALID,0,VALID,100,VALID,-0.0509425,VALID,20.1419,VALID,115,VALID,0,
2009-06-09, 00:08:00,VALID,918.887,VALID,0,VALID,100,VALID,-0.0169808,VALID,20.1192,VALID,123,VALID,0.00613839,
2009-06-09, 00:09:00,VALID,918.901,VALID,0,VALID,100,VALID,-0.0679233,VALID,20.1259,VALID,131,VALID,0.0259766,
2009-06-09, 00:10:00,VALID,918.903,VALID,0,VALID,100,VALID,-0.0169808,VALID,20.1194,VALID,126,VALID,0,
2009-06-09, 00:11:00,VALID,918.897,VALID,0,VALID,100,VALID,-0.0509425,VALID,20.1027,VALID,119,VALID,0,
2009-06-09, 00:12:00,VALID,918.886,VALID,0,VALID,100,VALID,-0.0509425,VALID,20.0897,VALID,100,VALID,0,
2009-06-09, 00:13:00,VALID,918.872,VALID,0,VALID,100,VALID,-0.0509425,VALID,20.0667,VALID,99,VALID,0,
2009-06-09, 00:14:00,VALID,918.838,VALID,0,VALID,100,VALID,-0.0509425,VALID,20.0053,VALID,92,VALID,0,
2009-06-09, 00:15:00,VALID,918.815,VALID,0,VALID,100,VALID,-0.0679233,VALID,19.9958,VALID,94,VALID,0,
2009-06-09, 00:16:00,VALID,918.787,VALID,0,VALID,100,VALID,-0.0509425,VALID,19.9926,VALID,100,VALID,0,
2009-06-09, 00:17:00,VALID,918.772,VALID,0,VALID,100,VALID,-0.0849042,VALID,20.0021,VALID,114,VALID,0,
2009-06-09, 00:18:00,VALID,918.761,VALID,0,VALID,100,VALID,-0.0339617,VALID,20.0188,VALID,124,VALID,0,
2009-06-09, 00:19:00,VALID,918.748,VALID,0,VALID,100,VALID,-0.0679233,VALID,20.0413,VALID,125,VALID,0,
2009-06-09, 00:20:00,VALID,918.724,VALID,0,VALID,100,VALID,-0.0849042,VALID,20.048,VALID,125,VALID,0,
2009-06-09, 00:21:00,VALID,918.7,VALID,0,VALID,100,VALID,-0.0849042,VALID,20.0315,VALID,116,VALID,0,
2009-06-09, 00:22:00,VALID,918.677,VALID,0,VALID,100,VALID,-0.0679233,VALID,20.0278,VALID,103,VALID,0,
2009-06-09, 00:23:00,VALID,918.663,VALID,0,VALID,100,VALID,-0.0169808,VALID,19.9304,VALID,92,VALID,0,
2009-06-09, 00:24:00,VALID,918.647,VALID,0,VALID,100,VALID,0,VALID,19.9045,VALID,91,VALID,0,
2009-06-09, 00:25:00,VALID,918.652,VALID,0,VALID,100,VALID,-0.0679233,VALID,19.8985,VALID,105,VALID,0,
2009-06-09, 00:26:00,VALID,918.648,VALID,0,VALID,100,VALID,-0.0169808,VALID,19.9177,VALID,107,VALID,0,
2009-06-09, 00:27:00,VALID,918.636,VALID,0,VALID,100,VALID,-0.0169808,VALID,19.8982,VALID,124,VALID,0,
2009-06-09, 00:28:00,VALID,918.62,VALID,0,VALID,100,VALID,-0.0169808,VALID,19.8785,VALID,139,VALID,0,
2009-06-09, 00:29:00,VALID,918.613,VALID,0,VALID,100,VALID,-0.0509425,VALID,19.885,VALID,142,VALID,0,
2009-06-09, 00:30:00,VALID,918.599,VALID,0,VALID,100,VALID,-0.0509425,VALID,19.889,VALID,136,VALID,0.00514482,
2009-06-09, 00:31:00,VALID,918.584,VALID,0,VALID,100,VALID,-0.0169808,VALID,19.9112,VALID,135,VALID,0.124809,
2009-06-09, 00:32:00,VALID,918.586,VALID,0,VALID,100,VALID,-0.0169808,VALID,19.914,VALID,126,VALID,0.0984375,
2009-06-09, 00:33:00,VALID,918.576,VALID,0,VALID,100,VALID,-0.0509425,VALID,19.9147,VALID,123,VALID,0.0537997,
2009-06-09, 00:34:00,VALID,918.548,VALID,0,VALID,100,VALID,-0.0169808,VALID,19.8788,VALID,123,VALID,0,
2009-06-09, 00:35:00,VALID,918.529,VALID,0,VALID,100,VALID,-0.0679233,VALID,19.8882,VALID,130,VALID,0.20827,
2009-06-09, 00:36:00,VALID,918.517,VALID,0,VALID,100,VALID,-0.0339617,VALID,19.8952,VALID,136,VALID,0.00852273,
2009-06-09, 00:37:00,VALID,918.513,VALID,0,VALID,100,VALID,0,VALID,19.8922,VALID,130,VALID,0.065696,
2009-06-09, 00:38:00,VALID,918.504,VALID,0,VALID,100,VALID,-0.0339617,VALID,19.8598,VALID,116,VALID,0.0104167,
2009-06-09, 00:39:00,VALID,918.501,VALID,0,VALID,100,VALID,-0.0509425,VALID,19.8306,VALID,107,VALID,0,
2009-06-09, 00:40:00,VALID,918.501,VALID,0,VALID,100,VALID,-0.0849042,VALID,19.7882,VALID,90,VALID,0.000952744,
2009-06-09, 00:41:00,VALID,918.49,VALID,0,VALID,100,VALID,-0.0169808,VALID,19.7355,VALID,93,VALID,0,
2009-06-09, 00:42:00,VALID,918.48,VALID,0,VALID,100,VALID,-0.0679233,VALID,19.6743,VALID,98,VALID,0,
2009-06-09, 00:43:00,VALID,918.458,VALID,0,VALID,100,VALID,-0.0339617,VALID,19.6416,VALID,106,VALID,0,
2009-06-09, 00:44:00,VALID,918.434,VALID,0,VALID,100,VALID,-0.0169808,VALID,19.6516,VALID,118,VALID,0,
2009-06-09, 00:45:00,VALID,918.421,VALID,0,VALID,100,VALID,-0.0339617,VALID,19.6289,VALID,106,VALID,0,
2009-06-09, 00:46:00,VALID,918.394,VALID,0,VALID,100,VALID,-0.0169808,VALID,19.5827,VALID,83,VALID,0,
2009-06-09, 00:47:00,VALID,918.387,VALID,0,VALID,100,VALID,-0.0509425,VALID,19.5643,VALID,84,VALID,0,
2009-06-09, 00:48:00,VALID,918.377,VALID,0,VALID,100,VALID,-0.0339617,VALID,19.5668,VALID,86,VALID,0,
2009-06-09, 00:49:00,VALID,918.371,VALID,0,VALID,100,VALID,-0.0169808,VALID,19.5867,VALID,108,VALID,0.0651042,
2009-06-09, 00:50:00,VALID,918.363,VALID,0,VALID,100,VALID,-0.0339617,VALID,19.5925,VALID,106,VALID,0,
2009-06-09, 00:51:00,VALID,918.342,VALID,0,VALID,100,VALID,-0.0339617,VALID,19.6249,VALID,115,VALID,0,
2009-06-09, 00:52:00,VALID,918.325,VALID,0,VALID,100,VALID,-0.0679233,VALID,19.6811,VALID,122,VALID,0,
2009-06-09, 00:53:00,VALID,918.322,VALID,0,VALID,100,VALID,-0.0509425,VALID,19.6708,VALID,131,VALID,0,
2009-06-09, 00:54:00,VALID,918.304,VALID,0,VALID,100,VALID,-0.0169808,VALID,19.6546,VALID,125,VALID,0,
2009-06-09, 00:55:00,VALID,918.291,VALID,0,VALID,100,VALID,0,VALID,19.6387,VALID,122,VALID,0,
2009-06-09, 00:56:00,VALID,918.284,VALID,0,VALID,100,VALID,-0.0169808,VALID,19.5798,VALID,119,VALID,0,
2009-06-09, 00:57:00,VALID,918.28,VALID,0,VALID,100,VALID,-0.0679233,VALID,19.5643,VALID,114,VALID,0.0368823,
2009-06-09, 00:58:00,VALID,918.285,VALID,0,VALID,100,VALID,-0.0509425,VALID,19.5316,VALID,121,VALID,0.00223214,
2009-06-09, 00:59:00,VALID,918.287,VALID,0,VALID,100,VALID,-0.0509425,VALID,19.5056,VALID,116,VALID,0.0014881,
2009-06-09, 01:00:00,VALID,918.296,VALID,0,VALID,100,VALID,-0.0339617,VALID,19.4669,VALID,111,VALID,0,
2009-06-09, 01:01:00,VALID,918.312,VALID,0,VALID,100,VALID,-0.0339617,VALID,19.4407,VALID,111,VALID,0,
2009-06-09, 01:02:00,VALID,918.336,VALID,0,VALID,100,VALID,-0.0509425,VALID,19.4083,VALID,111,VALID,0,
2009-06-09, 01:03:00,VALID,918.336,VALID,0,VALID,100,VALID,-0.0509425,VALID,19.3758,VALID,111,VALID,0,
2009-06-09, 01:04:00,VALID,918.33,VALID,0,VALID,100,VALID,-0.0849042,VALID,19.3466,VALID,111,VALID,0,
2009-06-09, 01:05:00,VALID,918.328,VALID,0,VALID,100,VALID,-0.0849042,VALID,19.3696,VALID,109,VALID,0,
2009-06-09, 01:06:00,VALID,918.324,VALID,0,VALID,100,VALID,-0.0849042,VALID,19.3763,VALID,85,VALID,0,
2009-06-09, 01:07:00,VALID,918.341,VALID,0,VALID,100,VALID,-0.0339617,VALID,19.3107,VALID,83,VALID,0,
2009-06-09, 01:08:00,VALID,918.356,VALID,0,VALID,100,VALID,-0.0509425,VALID,19.2623,VALID,83,VALID,0,
2009-06-09, 01:09:00,VALID,918.364,VALID,0,VALID,100,VALID,-0.0679233,VALID,19.2882,VALID,82,VALID,0,
2009-06-09, 01:10:00,VALID,918.375,VALID,0,VALID,100,VALID,-0.0849042,VALID,19.3207,VALID,79,VALID,0,
2009-06-09, 01:11:00,VALID,918.361,VALID,0,VALID,100,VALID,-0.0679233,VALID,19.3042,VALID,78,VALID,0,
2009-06-09, 01:12:00,VALID,918.34,VALID,0,VALID,100,VALID,-0.0849042,VALID,19.298,VALID,78,VALID,0,
2009-06-09, 01:13:00,VALID,918.323,VALID,0,VALID,100,VALID,-0.0339617,VALID,19.3137,VALID,85,VALID,0,
2009-06-09, 01:14:00,VALID,918.292,VALID,0,VALID,100,VALID,-0.0679233,VALID,19.3239,VALID,92,VALID,0,
2009-06-09, 01:15:00,VALID,918.274,VALID,0,VALID,100,VALID,-0.0339617,VALID,19.3307,VALID,103,VALID,0.000186012,
2009-06-09, 01:16:00,VALID,918.267,VALID,0,VALID,100,VALID,-0.101885,VALID,19.3436,VALID,114,VALID,0.0501645,
2009-06-09, 01:17:00,VALID,918.254,VALID,0,VALID,100,VALID,-0.0339617,VALID,19.3464,VALID,126,VALID,0.0375381,
2009-06-09, 01:18:00,VALID,918.233,VALID,0,VALID,100,VALID,-0.0679233,VALID,19.3302,VALID,129,VALID,0,
2009-06-09, 01:19:00,VALID,918.216,VALID,0,VALID,100,VALID,-0.0509425,VALID,19.314,VALID,120,VALID,0,
2009-06-09, 01:20:00,VALID,918.206,VALID,0,VALID,100,VALID,-0.101885,VALID,19.305,VALID,117,VALID,0,
2009-06-09, 01:21:00,VALID,918.197,VALID,0,VALID,100,VALID,-0.0679233,VALID,19.279,VALID,106,VALID,0,
2009-06-09, 01:22:00,VALID,918.187,VALID,0,VALID,100,VALID,-0.0849042,VALID,19.2595,VALID,100,VALID,0,
2009-06-09, 01:23:00,VALID,918.169,VALID,0,VALID,100,VALID,-0.0849042,VALID,19.2885,VALID,124,VALID,0.000571646,
2009-06-09, 01:24:00,VALID,918.164,VALID,0,VALID,100,VALID,-0.0679233,VALID,19.2915,VALID,124,VALID,0.0524554,
2009-06-09, 01:25:00,VALID,918.162,VALID,0,VALID,100,VALID,-0.0849042,VALID,19.3107,VALID,117,VALID,0,
2009-06-09, 01:26:00,VALID,918.171,VALID,0,VALID,100,VALID,-0.0339617,VALID,19.311,VALID,116,VALID,0.0457317,
2009-06-09, 01:27:00,VALID,918.161,VALID,0,VALID,100,VALID,-0.0849042,VALID,19.3239,VALID,114,VALID,0.00672238,
2009-06-09, 01:28:00,VALID,918.173,VALID,0,VALID,100,VALID,-0.0849042,VALID,19.3234,VALID,114,VALID,0.0024858,
2009-06-09, 01:29:00,VALID,918.183,VALID,0,VALID,100,VALID,-0.0509425,VALID,19.3007,VALID,112,VALID,0,
2009-06-09, 01:30:00,VALID,918.185,VALID,0,VALID,100,VALID,-0.0509425,VALID,19.2194,VALID,112,VALID,0,
2009-06-09, 01:31:00,VALID,918.181,VALID,0,VALID,100,VALID,-0.0679233,VALID,19.2204,VALID,112,VALID,0,
2009-06-09, 01:32:00,VALID,918.178,VALID,0,VALID,100,VALID,-0.0339617,VALID,19.2069,VALID,112,VALID,0,
2009-06-09, 01:33:00,VALID,918.156,VALID,0,VALID,100,VALID,-0.0849042,VALID,19.1552,VALID,112,VALID,0,
2009-06-09, 01:34:00,VALID,918.142,VALID,0,VALID,100,VALID,-0.0339617,VALID,19.0996,VALID,112,VALID,0,
2009-06-09, 01:35:00,VALID,918.129,VALID,0,VALID,100,VALID,-0.0679233,VALID,19.0539,VALID,112,VALID,0,
2009-06-09, 01:36:00,VALID,918.128,VALID,0,VALID,100,VALID,-0.0509425,VALID,19.0766,VALID,112,VALID,0,
2009-06-09, 01:37:00,VALID,918.125,VALID,0,VALID,100,VALID,-0.0339617,VALID,19.0616,VALID,100,VALID,0,
2009-06-09, 01:38:00,VALID,918.136,VALID,0,VALID,100,VALID,-0.0679233,VALID,19.0317,VALID,119,VALID,0,
2009-06-09, 01:39:00,VALID,918.143,VALID,0,VALID,100,VALID,-0.101885,VALID,19.0642,VALID,145,VALID,0.0133929,
2009-06-09, 01:40:00,VALID,918.143,VALID,0,VALID,100,VALID,-0.0849042,VALID,19.0966,VALID,144,VALID,0,
2009-06-09, 01:41:00,VALID,918.134,VALID,0,VALID,100,VALID,-0.0509425,VALID,19.1158,VALID,134,VALID,0,
2009-06-09, 01:42:00,VALID,918.13,VALID,0,VALID,100,VALID,-0.0169808,VALID,19.0891,VALID,131,VALID,0,
2009-06-09, 01:43:00,VALID,918.153,VALID,0,VALID,100,VALID,0,VALID,19.1021,VALID,131,VALID,0,
2009-06-09, 01:44:00,VALID,918.154,VALID,0,VALID,100,VALID,0,VALID,19.0505,VALID,131,VALID,0,
2009-06-09, 01:45:00,VALID,918.169,VALID,0,VALID,100,VALID,-0.0169808,VALID,19.0407,VALID,131,VALID,0,
2009-06-09, 01:46:00,VALID,918.173,VALID,0,VALID,100,VALID,0.0169808,VALID,19.0437,VALID,131,VALID,0,
2009-06-09, 01:47:00,VALID,918.172,VALID,0,VALID,100,VALID,0,VALID,19.0502,VALID,131,VALID,0,
2009-06-09, 01:48:00,VALID,918.161,VALID,0,VALID,100,VALID,0,VALID,19.0243,VALID,132,VALID,0,
2009-06-09, 01:49:00,VALID,918.143,VALID,0,VALID,100,VALID,-0.0169808,VALID,18.9561,VALID,134,VALID,0,
2009-06-09, 01:50:00,VALID,918.129,VALID,0,VALID,100,VALID,0,VALID,18.8753,VALID,136,VALID,0.123512,
2009-06-09, 01:51:00,VALID,918.143,VALID,0,VALID,100,VALID,-0.0169808,VALID,18.8262,VALID,141,VALID,0.0918445,
2009-06-09, 01:52:00,VALID,918.146,VALID,0,VALID,100,VALID,0,VALID,18.8593,VALID,157,VALID,0.0961682,
2009-06-09, 01:53:00,VALID,918.16,VALID,0,VALID,100,VALID,0,VALID,18.9075,VALID,159,VALID,0.0500372,
2009-06-09, 01:54:00,VALID,918.163,VALID,0,VALID,100,VALID,0,VALID,18.9596,VALID,161,VALID,0.0403343,
2009-06-09, 01:55:00,VALID,918.168,VALID,0,VALID,100,VALID,0.0169808,VALID,19.0018,VALID,157,VALID,0.0503906,
2009-06-09, 01:56:00,VALID,918.159,VALID,0,VALID,100,VALID,0,VALID,19.0697,VALID,151,VALID,0.0639535,
2009-06-09, 01:57:00,VALID,918.153,VALID,0,VALID,100,VALID,0.0169808,VALID,19.0986,VALID,143,VALID,0,
2009-06-09, 01:58:00,VALID,918.146,VALID,0,VALID,100,VALID,0,VALID,19.1278,VALID,123,VALID,0,
2009-06-09, 01:59:00,VALID,918.135,VALID,0,VALID,100,VALID,0.0169808,VALID,19.1313,VALID,122,VALID,0.0186012,
2009-06-09, 02:00:00,VALID,918.137,VALID,0,VALID,100,VALID,0,VALID,19.1051,VALID,103,VALID,0.169207,
2009-06-09, 02:01:00,VALID,918.13,VALID,0,VALID,100,VALID,0.0169808,VALID,19.0859,VALID,73,VALID,0,
2009-06-09, 02:02:00,VALID,918.131,VALID,0,VALID,100,VALID,0,VALID,19.0375,VALID,75,VALID,0,
2009-06-09, 02:03:00,VALID,918.147,VALID,0,VALID,100,VALID,0,VALID,19.0148,VALID,102,VALID,0,
2009-06-09, 02:04:00,VALID,918.144,VALID,0,VALID,100,VALID,0,VALID,19.0375,VALID,106,VALID,0,
2009-06-09, 02:05:00,VALID,918.159,VALID,0,VALID,100,VALID,0,VALID,19.047,VALID,107,VALID,0.0287064,
2009-06-09, 02:06:00,VALID,918.149,VALID,0,VALID,100,VALID,0,VALID,19.0243,VALID,124,VALID,0.0330256,
2009-06-09, 02:07:00,VALID,918.127,VALID,0,VALID,100,VALID,0,VALID,18.9983,VALID,146,VALID,0.114931,
2009-06-09, 02:08:00,VALID,918.112,VALID,0,VALID,100,VALID,0.0339617,VALID,18.9886,VALID,138,VALID,0.207741,
2009-06-09, 02:09:00,VALID,918.099,VALID,0,VALID,100,VALID,0.0169808,VALID,18.9694,VALID,141,VALID,0.053125,
2009-06-09, 02:10:00,VALID,918.079,VALID,0,VALID,100,VALID,-0.0169808,VALID,18.9754,VALID,143,VALID,0.346037,
2009-06-09, 02:11:00,VALID,918.067,VALID,0,VALID,100,VALID,0,VALID,19.0078,VALID,145,VALID,0.251563,
2009-06-09, 02:12:00,VALID,918.056,VALID,0,VALID,100,VALID,0,VALID,19.0078,VALID,146,VALID,0.115189,
2009-06-09, 02:13:00,VALID,918.037,VALID,0,VALID,100,VALID,-0.0169808,VALID,19.011,VALID,144,VALID,0.407639,
2009-06-09, 02:14:00,VALID,918.029,VALID,0,VALID,100,VALID,0,VALID,18.9981,VALID,141,VALID,0.269886,
2009-06-09, 02:15:00,VALID,918.001,VALID,0,VALID,100,VALID,0,VALID,19.0208,VALID,141,VALID,0.087936,
2009-06-09, 02:16:00,VALID,917.978,VALID,0,VALID,100,VALID,0.0339617,VALID,19.0303,VALID,137,VALID,0.00390625,
2009-06-09, 02:17:00,VALID,917.967,VALID,0,VALID,100,VALID,0.0509425,VALID,19.0467,VALID,136,VALID,0.0392485,
2009-06-09, 02:18:00,VALID,917.952,VALID,0,VALID,100,VALID,0,VALID,19.0697,VALID,134,VALID,0.0277778,
2009-06-09, 02:19:00,VALID,917.965,VALID,0,VALID,100,VALID,0,VALID,19.0954,VALID,144,VALID,0.0025436,
2009-06-09, 02:20:00,VALID,917.948,VALID,0,VALID,100,VALID,0.0169808,VALID,19.1151,VALID,133,VALID,0.0788517,
2009-06-09, 02:21:00,VALID,917.949,VALID,0,VALID,100,VALID,0.0169808,VALID,19.1049,VALID,119,VALID,0.0046875,
2009-06-09, 02:22:00,VALID,917.941,VALID,0,VALID,100,VALID,0,VALID,19.1251,VALID,113,VALID,0,
2009-06-09, 02:23:00,VALID,917.953,VALID,0,VALID,100,VALID,0,VALID,19.1243,VALID,109,VALID,0,
2009-06-09, 02:24:00,VALID,917.964,VALID,0,VALID,100,VALID,0.0169808,VALID,19.1735,VALID,111,VALID,0,
2009-06-09, 02:25:00,VALID,917.983,VALID,0,VALID,100,VALID,0,VALID,19.1573,VALID,109,VALID,0,
2009-06-09, 02:26:00,VALID,917.993,VALID,0,VALID,100,VALID,0,VALID,19.1735,VALID,120,VALID,0,
2009-06-09, 02:27:00,VALID,918.013,VALID,0,VALID,100,VALID,-0.0339617,VALID,19.1994,VALID,118,VALID,0.0319444,
2009-06-09, 02:28:00,VALID,918.026,VALID,0,VALID,100,VALID,0,VALID,19.2159,VALID,106,VALID,0.054878,
2009-06-09, 02:29:00,VALID,918.039,VALID,0,VALID,100,VALID,0,VALID,19.2057,VALID,98,VALID,0.130394,
2009-06-09, 02:30:00,VALID,918.055,VALID,0,VALID,100,VALID,-0.0169808,VALID,19.1927,VALID,100,VALID,0,
2009-06-09, 02:31:00,VALID,918.067,VALID,0,VALID,100,VALID,0,VALID,19.2054,VALID,107,VALID,0,
2009-06-09, 02:32:00,VALID,918.086,VALID,0,VALID,100,VALID,0.0169808,VALID,19.2119,VALID,131,VALID,0,
2009-06-09, 02:33:00,VALID,918.091,VALID,0,VALID,100,VALID,0,VALID,19.2154,VALID,136,VALID,0.0385045,
2009-06-09, 02:34:00,VALID,918.092,VALID,0,VALID,100,VALID,-0.0169808,VALID,19.2089,VALID,141,VALID,0.129002,
2009-06-09, 02:35:00,VALID,918.082,VALID,0,VALID,100,VALID,0.0169808,VALID,19.1862,VALID,139,VALID,0,
2009-06-09, 02:36:00,VALID,918.076,VALID,0,VALID,100,VALID,0.0339617,VALID,19.1737,VALID,135,VALID,0,
2009-06-09, 02:37:00,VALID,918.077,VALID,0,VALID,100,VALID,-0.0169808,VALID,19.1538,VALID,143,VALID,0,
2009-06-09, 02:38:00,VALID,918.073,VALID,0,VALID,100,VALID,-0.0169808,VALID,19.1672,VALID,131,VALID,0,
2009-06-09, 02:39:00,VALID,918.071,VALID,0,VALID,100,VALID,0.0339617,VALID,19.167,VALID,133,VALID,0,
2009-06-09, 02:40:00,VALID,918.068,VALID,0,VALID,100,VALID,0.0169808,VALID,19.147,VALID,136,VALID,0,
2009-06-09, 02:41:00,VALID,918.084,VALID,0,VALID,100,VALID,-0.0339617,VALID,19.1513,VALID,135,VALID,0,
2009-06-09, 02:42:00,VALID,918.071,VALID,0,VALID,100,VALID,0.0169808,VALID,19.1443,VALID,144,VALID,0,
2009-06-09, 02:43:00,VALID,918.072,VALID,0,VALID,100,VALID,0,VALID,19.1543,VALID,147,VALID,0.0339177,
2009-06-09, 02:44:00,VALID,918.07,VALID,0,VALID,100,VALID,0,VALID,19.1281,VALID,151,VALID,0.136991,
2009-06-09, 02:45:00,VALID,918.063,VALID,0,VALID,100,VALID,0.0169808,VALID,19.1346,VALID,144,VALID,0.0684524,
2009-06-09, 02:46:00,VALID,918.06,VALID,0,VALID,100,VALID,-0.0169808,VALID,19.1478,VALID,136,VALID,0.204723,
2009-06-09, 02:47:00,VALID,918.059,VALID,0,VALID,100,VALID,0,VALID,19.177,VALID,129,VALID,0.249256,
2009-06-09, 02:48:00,VALID,918.051,VALID,0,VALID,100,VALID,-0.0339617,VALID,19.167,VALID,129,VALID,0.025343,
2009-06-09, 02:49:00,VALID,918.042,VALID,0,VALID,100,VALID,0,VALID,19.1543,VALID,134,VALID,0.303089,
2009-06-09, 02:50:00,VALID,918.049,VALID,0,VALID,100,VALID,0,VALID,19.1607,VALID,149,VALID,0.0619284,
2009-06-09, 02:51:00,VALID,918.048,VALID,0,VALID,100,VALID,-0.0169808,VALID,19.1478,VALID,134,VALID,0.204368,
2009-06-09, 02:52:00,VALID,918.047,VALID,0,VALID,100,VALID,0.0169808,VALID,19.1311,VALID,150,VALID,0.276811,
2009-06-09, 02:53:00,VALID,918.052,VALID,0,VALID,100,VALID,0,VALID,19.1438,VALID,153,VALID,0.506747,
2009-06-09, 02:54:00,VALID,918.044,VALID,0,VALID,100,VALID,0.0509425,VALID,19.1637,VALID,152,VALID,0.155729,
2009-06-09, 02:55:00,VALID,918.024,VALID,0,VALID,100,VALID,0.0339617,VALID,19.1568,VALID,151,VALID,0.318788,
2009-06-09, 02:56:00,VALID,918.027,VALID,0,VALID,100,VALID,-0.0679233,VALID,19.1907,VALID,139,VALID,0.387835,
2009-06-09, 02:57:00,VALID,918.005,VALID,0,VALID,100,VALID,-0.101885,VALID,19.2271,VALID,129,VALID,0.198933,
2009-06-09, 02:58:00,VALID,917.995,VALID,0,VALID,100,VALID,-0.0679233,VALID,19.2396,VALID,125,VALID,0,
2009-06-09, 02:59:00,VALID,917.979,VALID,0,VALID,100,VALID,-0.0849042,VALID,19.2298,VALID,130,VALID,0.504179,
2009-06-09, 03:00:00,VALID,917.986,VALID,0,VALID,100,VALID,-0.118866,VALID,19.2493,VALID,125,VALID,0.886896,
2009-06-09, 03:01:00,VALID,917.989,VALID,0,VALID,100,VALID,-0.101885,VALID,19.3047,VALID,121,VALID,0.12066,
2009-06-09, 03:02:00,VALID,917.999,VALID,0,VALID,100,VALID,-0.101885,VALID,19.3144,VALID,123,VALID,0,
2009-06-09, 03:03:00,VALID,918.004,VALID,0,VALID,100,VALID,-0.118866,VALID,19.2952,VALID,137,VALID,0.00111607,
2009-06-09, 03:04:00,VALID,918.007,VALID,0,VALID,100,VALID,-0.0849042,VALID,19.2498,VALID,148,VALID,0,
2009-06-09, 03:05:00,VALID,918.02,VALID,0,VALID,100,VALID,-0.0679233,VALID,19.2169,VALID,138,VALID,0.285429,
2009-06-09, 03:06:00,VALID,918.008,VALID,0,VALID,100,VALID,-0.101885,VALID,19.2141,VALID,126,VALID,0.0628906,
2009-06-09, 03:07:00,VALID,917.998,VALID,0,VALID,100,VALID,-0.0679233,VALID,19.1844,VALID,127,VALID,0.0402058,
2009-06-09, 03:08:00,VALID,917.996,VALID,0,VALID,100,VALID,-0.0679233,VALID,19.1585,VALID,125,VALID,0.00109012,
2009-06-09, 03:09:00,VALID,917.976,VALID,0,VALID,100,VALID,-0.101885,VALID,19.1188,VALID,112,VALID,0,
2009-06-09, 03:10:00,VALID,917.958,VALID,0,VALID,100,VALID,-0.0849042,VALID,19.0769,VALID,122,VALID,0,
2009-06-09, 03:11:00,VALID,917.952,VALID,0,VALID,100,VALID,-0.0169808,VALID,19.021,VALID,116,VALID,0,
2009-06-09, 03:12:00,VALID,917.956,VALID,0,VALID,100,VALID,0.0849042,VALID,18.9619,VALID,112,VALID,0,
2009-06-09, 03:13:00,VALID,917.925,VALID,0,VALID,100,VALID,0.0339617,VALID,18.9297,VALID,109,VALID,0,
2009-06-09, 03:14:00,VALID,917.931,VALID,0,VALID,100,VALID,0.0509425,VALID,18.8838,VALID,112,VALID,0,
2009-06-09, 03:15:00,VALID,917.929,VALID,0,VALID,100,VALID,0.0679233,VALID,18.8289,VALID,114,VALID,0.00651042,
2009-06-09, 03:16:00,VALID,917.926,VALID,0,VALID,100,VALID,0,VALID,18.8097,VALID,108,VALID,0.00106534,
2009-06-09, 03:17:00,VALID,917.944,VALID,0,VALID,100,VALID,0.0169808,VALID,18.794,VALID,110,VALID,0,
2009-06-09, 03:18:00,VALID,917.953,VALID,0,VALID,100,VALID,0,VALID,18.7877,VALID,115,VALID,0,
2009-06-09, 03:19:00,VALID,917.966,VALID,0,VALID,100,VALID,0,VALID,18.7805,VALID,115,VALID,0,
2009-06-09, 03:20:00,VALID,917.967,VALID,0,VALID,100,VALID,0.0169808,VALID,18.7872,VALID,125,VALID,0,
2009-06-09, 03:21:00,VALID,917.969,VALID,0,VALID,100,VALID,0.0169808,VALID,18.8004,VALID,128,VALID,0,
2009-06-09, 03:22:00,VALID,917.947,VALID,0,VALID,100,VALID,0.0509425,VALID,18.8259,VALID,129,VALID,0,
2009-06-09, 03:23:00,VALID,917.928,VALID,0,VALID,100,VALID,0,VALID,18.8426,VALID,132,VALID,0,
2009-06-09, 03:24:00,VALID,917.914,VALID,0,VALID,100,VALID,0.0169808,VALID,18.8785,VALID,143,VALID,0,
2009-06-09, 03:25:00,VALID,917.892,VALID,0,VALID,100,VALID,0,VALID,18.9008,VALID,124,VALID,0.00390625,
2009-06-09, 03:26:00,VALID,917.887,VALID,0,VALID,100,VALID,-0.0339617,VALID,18.9077,VALID,118,VALID,0,
2009-06-09, 03:27:00,VALID,917.885,VALID,0,VALID,100,VALID,-0.0849042,VALID,18.8475,VALID,118,VALID,0,
2009-06-09, 03:28:00,VALID,917.874,VALID,0,VALID,100,VALID,-0.118866,VALID,18.7562,VALID,111,VALID,0,
2009-06-09, 03:29:00,VALID,917.877,VALID,0,VALID,100,VALID,-0.0849042,VALID,18.7178,VALID,68,VALID,0,
2009-06-09, 03:30:00,VALID,917.889,VALID,0,VALID,100,VALID,-0.118866,VALID,18.6364,VALID,68,VALID,0,
2009-06-09, 03:31:00,VALID,917.92,VALID,0,VALID,100,VALID,-0.101885,VALID,18.5451,VALID,68,VALID,0,
2009-06-09, 03:32:00,VALID,917.936,VALID,0,VALID,100,VALID,-0.118866,VALID,18.5519,VALID,69,VALID,0,
2009-06-09, 03:33:00,VALID,917.957,VALID,0,VALID,100,VALID,-0.0849042,VALID,18.6362,VALID,94,VALID,0,
2009-06-09, 03:34:00,VALID,917.978,VALID,0,VALID,100,VALID,-0.101885,VALID,18.6946,VALID,104,VALID,0,
2009-06-09, 03:35:00,VALID,918.002,VALID,0,VALID,100,VALID,-0.118866,VALID,18.7178,VALID,109,VALID,0,
2009-06-09, 03:36:00,VALID,918.007,VALID,0,VALID,100,VALID,-0.0849042,VALID,18.7078,VALID,124,VALID,0,
2009-06-09, 03:37:00,VALID,918.013,VALID,0,VALID,100,VALID,-0.101885,VALID,18.6716,VALID,132,VALID,0,
2009-06-09, 03:38:00,VALID,917.992,VALID,0,VALID,100,VALID,-0.118866,VALID,18.6589,VALID,135,VALID,0,
2009-06-09, 03:39:00,VALID,917.98,VALID,0,VALID,100,VALID,-0.101885,VALID,18.6267,VALID,138,VALID,0,
2009-06-09, 03:40:00,VALID,917.979,VALID,0,VALID,100,VALID,-0.101885,VALID,18.5905,VALID,132,VALID,0.0893674,
2009-06-09, 03:41:00,VALID,917.971,VALID,0,VALID,100,VALID,-0.0849042,VALID,18.6137,VALID,131,VALID,0.300781,
2009-06-09, 03:42:00,VALID,917.974,VALID,0,VALID,100,VALID,-0.0509425,VALID,18.5968,VALID,140,VALID,0.101926,
2009-06-09, 03:43:00,VALID,917.98,VALID,0,VALID,100,VALID,-0.101885,VALID,18.6003,VALID,130,VALID,0.0279797,
2009-06-09, 03:44:00,VALID,917.976,VALID,0,VALID,100,VALID,-0.0849042,VALID,18.5803,VALID,127,VALID,0.00241815,
2009-06-09, 03:45:00,VALID,917.978,VALID,0,VALID,100,VALID,-0.0849042,VALID,18.5614,VALID,145,VALID,0.00297619,
2009-06-09, 03:46:00,VALID,917.971,VALID,0,VALID,100,VALID,-0.0849042,VALID,18.5586,VALID,138,VALID,0,